Hourly Weather Wien

Today, 20 June, Sunday

Time Temperature Precipitation Wind Pressure Humidity
00:00 +24°C° 0 mm 2 mps 741 mmHg 61%
01:00 +23°C° 0 mm 2 mps 741 mmHg 64%
02:00 +22°C° 0 mm 1 mps 741 mmHg 68%
03:00 +22°C° 0 mm 1 mps 740 mmHg 73%
04:00 +21°C° 0 mm 1 mps 740 mmHg 77%
05:00 +22°C° 0 mm 1 mps 740 mmHg 73%
06:00 +24°C° 0 mm 2 mps 740 mmHg 68%
07:00 +26°C° 0 mm 2 mps 740 mmHg 65%
08:00 +28°C° 0 mm 2 mps 740 mmHg 58%
09:00 +30°C° 0 mm 3 mps 740 mmHg 51%
10:00 +33°C° 0 mm 3 mps 740 mmHg 44%
11:00 +34°C° 0 mm 3 mps 740 mmHg 40%
12:00 +35°C° 0 mm 3 mps 739 mmHg 37%
13:00 +36°C° 0 mm 3 mps 739 mmHg 33%
14:00 +36°C° 0 mm 3 mps 739 mmHg 32%
15:00 +36°C° 0 mm 3 mps 738 mmHg 32%
16:00 +36°C° 0 mm 3 mps 738 mmHg 31%
17:00 +35°C° 0 mm 4 mps 738 mmHg 37%
18:00 +33°C° 0 mm 4 mps 738 mmHg 44%
19:00 +30°C° 0 mm 4 mps 738 mmHg 50%
20:00 +29°C° 0 mm 4 mps 738 mmHg 53%
21:00 +28°C° 0 mm 4 mps 737 mmHg 56%
22:00 +27°C° 0 mm 4 mps 737 mmHg 60%
23:00 +26°C° 0 mm 4 mps 737 mmHg 62%

Tomorrow, 21 June, Monday

Time Temperature Precipitation Wind Pressure Humidity
00:00 +25°C° 0 mm 4 mps 736 mmHg 64%
01:00 +25°C° 0 mm 4 mps 736 mmHg 65%
02:00 +24°C° 0 mm 3 mps 736 mmHg 70%
03:00 +22°C° 0 mm 3 mps 736 mmHg 74%
04:00 +21°C° 0 mm 2 mps 736 mmHg 78%
05:00 +23°C° 0 mm 2 mps 736 mmHg 75%
06:00 +25°C° 0 mm 2 mps 737 mmHg 71%
07:00 +26°C° 0 mm 3 mps 737 mmHg 68%
08:00 +27°C° 0 mm 3 mps 737 mmHg 63%
09:00 +28°C° 0 mm 3 mps 737 mmHg 58%
10:00 +30°C° 0 mm 3 mps 737 mmHg 53%
11:00 +31°C° 0 mm 2 mps 737 mmHg 50%
12:00 +32°C° 0 mm 2 mps 737 mmHg 47%
13:00 +34°C° 0 mm 2 mps 737 mmHg 44%
14:00 +34°C° 0.1 mm 2 mps 737 mmHg 45%
15:00 +32°C° 0.1 mm 2 mps 736 mmHg 46%
16:00 +32°C° 0.1 mm 2 mps 736 mmHg 48%
17:00 +30°C° 0.6 mm 2 mps 736 mmHg 57%
18:00 +28°C° 0.6 mm 2 mps 736 mmHg 67%
19:00 +26°C° 0.6 mm 1 mps 736 mmHg 77%
20:00 +25°C° 0.3 mm 1 mps 736 mmHg 80%
21:00 +24°C° 0.3 mm 1 mps 736 mmHg 82%
22:00 +24°C° 0.3 mm 1 mps 736 mmHg 84%
23:00 +23°C° 0.1 mm 1 mps 736 mmHg 85%

Day after tomorrow, 22 June, Tuesday

Time Temperature Precipitation Wind Pressure Humidity
00:00 +23°C° 0.1 mm 1 mps 736 mmHg 86%
01:00 +22°C° 0.1 mm 1 mps 736 mmHg 88%
02:00 +22°C° 0.1 mm 1 mps 736 mmHg 89%
03:00 +21°C° 0.1 mm 1 mps 737 mmHg 90%
04:00 +21°C° 0.1 mm 1 mps 737 mmHg 91%
05:00 +22°C° 0.2 mm 1 mps 737 mmHg 88%
06:00 +23°C° 0.2 mm 1 mps 738 mmHg 85%
07:00 +24°C° 0.2 mm 1 mps 738 mmHg 82%
08:00 +25°C° 0.1 mm 2 mps 738 mmHg 77%
09:00 +26°C° 0.1 mm 3 mps 739 mmHg 72%
10:00 +27°C° 0.1 mm 4 mps 739 mmHg 67%
11:00 +28°C° 0 mm 3 mps 739 mmHg 64%
12:00 +28°C° 0 mm 3 mps 739 mmHg 62%
13:00 +29°C° 0 mm 2 mps 739 mmHg 59%
14:00 +30°C° 0 mm 2 mps 739 mmHg 57%
15:00 +31°C° 0 mm 2 mps 739 mmHg 54%
16:00 +31°C° 0 mm 1 mps 739 mmHg 52%
17:00 +30°C° 0 mm 1 mps 739 mmHg 56%
18:00 +30°C° 0 mm 2 mps 738 mmHg 60%
19:00 +29°C° 0 mm 2 mps 738 mmHg 64%
20:00 +27°C° 0 mm 2 mps 738 mmHg 69%
21:00 +26°C° 0 mm 1 mps 739 mmHg 74%
22:00 +25°C° 0 mm 1 mps 739 mmHg 80%
23:00 +24°C° 0.3 mm 1 mps 739 mmHg 83%

23 June, Wednesday

Time Temperature Precipitation Wind Pressure Humidity
00:00 +23°C° 0.3 mm 1 mps 739 mmHg 86%
01:00 +23°C° 0.3 mm 1 mps 740 mmHg 89%
02:00 +21°C° 0.5 mm 2 mps 740 mmHg 89%
03:00 +21°C° 0.5 mm 3 mps 740 mmHg 90%
04:00 +21°C° 0.5 mm 3 mps 741 mmHg 91%
05:00 +22°C° 0 mm 4 mps 741 mmHg 87%
06:00 +22°C° 0 mm 4 mps 741 mmHg 83%
07:00 +23°C° 0 mm 5 mps 742 mmHg 79%
08:00 +25°C° 0 mm 5 mps 742 mmHg 73%
09:00 +26°C° 0 mm 5 mps 742 mmHg 68%
10:00 +28°C° 0 mm 5 mps 743 mmHg 62%
11:00 +29°C° 0 mm 4 mps 743 mmHg 59%
12:00 +30°C° 0 mm 4 mps 743 mmHg 56%
13:00 +31°C° 0 mm 3 mps 743 mmHg 52%
14:00 +31°C° 0 mm 3 mps 743 mmHg 51%
15:00 +31°C° 0 mm 2 mps 743 mmHg 50%
16:00 +32°C° 0 mm 2 mps 742 mmHg 49%
17:00 +31°C° 0 mm 2 mps 742 mmHg 54%
18:00 +30°C° 0 mm 2 mps 742 mmHg 60%
19:00 +29°C° 0 mm 2 mps 742 mmHg 65%
20:00 +27°C° 0 mm 2 mps 742 mmHg 71%
21:00 +26°C° 0 mm 1 mps 742 mmHg 77%
22:00 +24°C° 0 mm 1 mps 742 mmHg 83%
23:00 +24°C° 0 mm 1 mps 742 mmHg 84%

24 June, Thursday

Time Temperature Precipitation Wind Pressure Humidity
00:00 +23°C° 0 mm 1 mps 742 mmHg 86%
01:00 +23°C° 0 mm 1 mps 742 mmHg 88%
02:00 +23°C° 0 mm 1 mps 742 mmHg 88%
03:00 +22°C° 0 mm 1 mps 741 mmHg 89%
04:00 +22°C° 0 mm 1 mps 741 mmHg 90%
05:00 +24°C° 0 mm 1 mps 741 mmHg 82%
06:00 +25°C° 0 mm 2 mps 741 mmHg 74%
07:00 +27°C° 0 mm 2 mps 741 mmHg 67%
08:00 +29°C° 0 mm 3 mps 741 mmHg 58%
09:00 +33°C° 0 mm 3 mps 741 mmHg 49%
10:00 +35°C° 0 mm 4 mps 741 mmHg 40%
11:00 +35°C° 0 mm 4 mps 740 mmHg 40%
12:00 +36°C° 0 mm 4 mps 740 mmHg 39%
13:00 +36°C° 0 mm 5 mps 740 mmHg 39%
14:00 +36°C° 0 mm 5 mps 740 mmHg 41%
15:00 +35°C° 0 mm 5 mps 740 mmHg 43%
16:00 +34°C° 0 mm 5 mps 740 mmHg 45%
17:00 +32°C° 0.1 mm 4 mps 739 mmHg 52%
18:00 +29°C° 0.1 mm 4 mps 739 mmHg 60%
19:00 +27°C° 0.1 mm 4 mps 739 mmHg 67%
20:00 +26°C° 0.2 mm 4 mps 740 mmHg 72%
21:00 +23°C° 0.2 mm 5 mps 740 mmHg 78%
22:00 +22°C° 0.2 mm 5 mps 741 mmHg 83%
23:00 +22°C° 0.1 mm 5 mps 741 mmHg 82%

25 June, Friday

Time Temperature Precipitation Wind Pressure Humidity
00:00 +22°C° 0.1 mm 6 mps 741 mmHg 82%
01:00 +21°C° 0.1 mm 6 mps 741 mmHg 81%
02:00 +20°C° 0 mm 6 mps 741 mmHg 80%
03:00 +19°C° 0 mm 6 mps 741 mmHg 78%
04:00 +17°C° 0 mm 7 mps 741 mmHg 77%
05:00 +19°C° 0 mm 6 mps 742 mmHg 72%
06:00 +20°C° 0 mm 6 mps 742 mmHg 68%
07:00 +21°C° 0 mm 5 mps 743 mmHg 63%
08:00 +23°C° 0 mm 5 mps 743 mmHg 57%
09:00 +25°C° 0 mm 5 mps 743 mmHg 50%
10:00 +27°C° 0 mm 4 mps 743 mmHg 44%
11:00 +28°C° 0 mm 4 mps 742 mmHg 42%
12:00 +29°C° 0 mm 3 mps 742 mmHg 40%
13:00 +30°C° 0 mm 2 mps 742 mmHg 37%
14:00 +29°C° 0 mm 2 mps 741 mmHg 40%
15:00 +28°C° 0 mm 2 mps 741 mmHg 43%
16:00 +28°C° 0 mm 1 mps 741 mmHg 46%
17:00 +27°C° 0.1 mm 1 mps 740 mmHg 51%
18:00 +26°C° 0.1 mm 2 mps 740 mmHg 56%
19:00 +25°C° 0.1 mm 2 mps 740 mmHg 61%
20:00 +24°C° 0.2 mm 2 mps 740 mmHg 66%
21:00 +21°C° 0.2 mm 2 mps 740 mmHg 72%
22:00 +20°C° 0.2 mm 2 mps 740 mmHg 77%
23:00 +19°C° 0.5 mm 2 mps 740 mmHg 83%
Show more

We Need Your Consent

Meteoprog and our Service Providers may store and access personal data such as cookies, device identifiers or other similar technologies on your device and process such data to personalise content and ads, as well as provide social media features and to analyse the traffic.

  • Store and/or access information on your device

    Cookies, device identifiers or other information can be stored or accessed on your device for the purposes indicated above.

  • Personalised ads and content, ad and content measurement, audience insights, and products development

    Ads and content can be personalised based on a profile. More data can be added to better personalise ads and content. Ad and content performance can be measured. Insights about the audience who saw the ads and content can be derived. Such data can be used to develop or improve user’s experience, systems and software.

By clicking ‘I Agree’ you will allow the use of indicated cookies, device identifiers, web beacons or other similar technologies. Your settings can be changed in the browser on your device.

For certain purposes, legitimate interests may be relied on, rather than consent. You can read more about this in our Privacy and Cookie Policy.